START_TIME,STEP,MOV.,P1,t_acc.,E44,t_acc.,A3,t_acc.,P10,t_acc.
1979-07-22 12:00:22.860 ,3,0,1.,1.2,6.,1.2,0.,1.2,0.,1.2
1979-07-22 12:00:24.060 ,3,0,2.,1.2,4.,1.2,0.,1.2,0.,1.2
1979-07-22 12:00:25.260 ,3,0,0.,1.2,11.,1.2,0.,1.2,0.,1.2
1979-07-22 12:00:26.460 ,3,0,2.,1.2,6.,1.2,0.,1.2,0.,1.2
1979-07-22 12:00:27.660 ,3,0,3.,1.2,7.,1.2,0.,1.2,0.,1.2
1979-07-22 12:00:28.860 ,3,0,2.,1.2,9.,1.2,0.,1.2,0.,1.2
1979-07-22 12:00:30.060 ,3,0,2.,1.2,1.,1.2,0.,1.2,0.,1.2
1979-07-22 12:00:31.260 ,3,0,2.,1.2,9.,1.2,0.,1.2,0.,1.2
1979-07-22 12:00:32.460 ,3,0,0.,1.2,5.,1.2,0.,1.2,0.,1.2
1979-07-22 12:00:33.660 ,3,0,5.,1.2,7.,1.2,0.,1.2,0.,1.2
1979-07-22 12:00:34.860 ,3,0,1.,1.2,2.,1.2,0.,1.2,0.,1.2
1979-07-22 12:00:36.060 ,3,0,1.,1.2,7.,1.2,0.,1.2,0.,1.2
1979-07-22 12:00:37.260 ,3,0,2.,1.2,9.,1.2,0.,1.2,0.,1.2
1979-07-22 12:00:38.460 ,3,0,1.,1.2,5.,1.2,1.,1.2,0.,1.2
1979-07-22 12:00:39.660 ,3,0,5.,1.2,7.,1.2,0.,1.2,0.,1.2
1979-07-22 12:00:40.860 ,3,0,3.,1.2,4.,1.2,0.,1.2,0.,1.2
1979-07-22 12:00:42.060 ,3,0,0.,1.2,11.,1.2,0.,1.2,0.,1.2
1979-07-22 12:00:43.260 ,3,0,4.,1.2,4.,1.2,0.,1.2,0.,1.2
1979-07-22 12:00:44.460 ,3,0,2.,1.2,8.,1.2,0.,1.2,1.,1.2
1979-07-22 12:00:45.660 ,3,0,4.,1.2,10.,1.2,0.,1.2,0.,1.2
1979-07-22 12:00:46.860 ,2,0,0.,1.2,10.,1.2,0.,1.2,0.,1.2
1979-07-22 12:00:48.060 ,2,0,1.,1.2,9.,1.2,0.,1.2,0.,1.2
1979-07-22 12:00:49.260 ,2,0,3.,1.2,1.,1.2,0.,1.2,0.,1.2
1979-07-22 12:00:50.460 ,2,0,1.,1.2,6.,1.2,0.,1.2,0.,1.2
1979-07-22 12:00:51.660 ,2,0,2.,1.2,9.,1.2,0.,1.2,0.,1.2
1979-07-22 12:00:52.860 ,2,0,1.,1.2,180.,1.2,0.,1.2,0.,1.2
1979-07-22 12:00:54.060 ,2,0,2.,1.2,5.,1.2,0.,1.2,0.,1.2
1979-07-22 12:00:55.260 ,2,0,1.,1.2,11.,1.2,0.,1.2,0.,1.2
1979-07-22 12:00:56.460 ,2,0,4.,1.2,2.,1.2,0.,1.2,0.,1.2
1979-07-22 12:00:57.660 ,2,0,0.,1.2,11.,1.2,0.,1.2,0.,1.2
1979-07-22 12:00:58.860 ,2,0,2.,1.2,8.,1.2,0.,1.2,0.,1.2
1979-07-22 12:01:00.060 ,2,0,2.,1.2,5.,1.2,0.,1.2,0.,1.2
1979-07-22 12:01:01.260 ,2,0,1.,1.2,9.,1.2,0.,1.2,0.,1.2
1979-07-22 12:01:02.460 ,2,0,1.,1.2,12.,1.2,0.,1.2,0.,1.2
1979-07-22 12:01:03.660 ,2,0,0.,1.2,11.,1.2,0.,1.2,0.,1.2
1979-07-22 12:01:04.860 ,2,0,1.,1.2,8.,1.2,0.,1.2,0.,1.2
1979-07-22 12:01:06.060 ,2,0,1.,1.2,6.,1.2,0.,1.2,0.,1.2
1979-07-22 12:01:07.260 ,2,0,0.,1.2,12.,1.2,0.,1.2,0.,1.2
1979-07-22 12:01:08.460 ,2,0,1.,1.2,4.,1.2,0.,1.2,0.,1.2
1979-07-22 12:01:09.660 ,2,0,3.,1.2,10.,1.2,1.,1.2,0.,1.2
1979-07-22 12:01:10.860 ,2,0,0.,1.2,5.,1.2,0.,1.2,0.,1.2
1979-07-22 12:01:12.060 ,2,0,1.,1.2,12.,1.2,0.,1.2,0.,1.2
1979-07-22 12:01:13.260 ,2,0,3.,1.2,9.,1.2,0.,1.2,0.,1.2
1979-07-22 12:01:14.460 ,2,0,3.,1.2,6.,1.2,0.,1.2,0.,1.2
1979-07-22 12:01:15.660 ,2,0,2.,1.2,8.,1.2,0.,1.2,0.,1.2
1979-07-22 12:01:16.860 ,2,0,1.,1.2,12.,1.2,0.,1.2,0.,1.2
1979-07-22 12:01:18.060 ,2,0,2.,1.2,12.,1.2,0.,1.2,0.,1.2
1979-07-22 12:01:19.260 ,2,0,1.,1.2,4.,1.2,0.,1.2,0.,1.2
1979-07-22 12:01:20.460 ,2,0,2.,1.2,13.,1.2,0.,1.2,0.,1.2
1979-07-22 12:01:21.660 ,2,0,5.,1.2,10.,1.2,0.,1.2,0.,1.2
1979-07-22 12:01:22.860 ,2,0,2.,1.2,8.,1.2,0.,1.2,0.,1.2
1979-07-22 12:01:24.060 ,2,0,1.,1.2,10.,1.2,0.,1.2,0.,1.2
1979-07-22 12:01:25.260 ,2,0,1.,1.2,7.,1.2,0.,1.2,0.,1.2
1979-07-22 12:01:26.460 ,2,0,1.,1.2,1.,1.2,0.,1.2,0.,1.2
1979-07-22 12:01:27.660 ,2,0,0.,1.2,5.,1.2,0.,1.2,0.,1.2
1979-07-22 12:01:28.860 ,2,0,1.,1.2,9.,1.2,0.,1.2,0.,1.2
1979-07-22 12:01:30.060 ,2,0,0.,1.2,9.,1.2,0.,1.2,0.,1.2
1979-07-22 12:01:31.260 ,2,0,1.,1.2,4.,1.2,0.,1.2,0.,1.2
1979-07-22 12:01:32.460 ,2,0,9.,1.2,7.,1.2,0.,1.2,0.,1.2
1979-07-22 12:01:33.660 ,2,0,2.,1.2,4.,1.2,0.,1.2,0.,1.2
1979-07-22 12:01:34.860 ,1,0,2.,1.2,9.,1.2,0.,1.2,1.,1.2
1979-07-22 12:01:36.060 ,1,0,3.,1.2,15.,1.2,0.,1.2,0.,1.2
1979-07-22 12:01:37.260 ,1,0,0.,1.2,11.,1.2,0.,1.2,0.,1.2
1979-07-22 12:01:38.460 ,1,0,2.,1.2,13.,1.2,0.,1.2,0.,1.2
1979-07-22 12:01:39.660 ,1,0,1.,1.2,4.,1.2,0.,1.2,0.,1.2
1979-07-22 12:01:40.860 ,1,0,15.,1.2,192.,1.2,0.,1.2,0.,1.2
1979-07-22 12:01:42.060 ,1,0,61.,1.2,8.,1.2,0.,1.2,0.,1.2
1979-07-22 12:01:43.260 ,1,0,64.,1.2,6.,1.2,3.,1.2,0.,1.2
1979-07-22 12:01:44.460 ,1,0,58.,1.2,13.,1.2,1.,1.2,0.,1.2
1979-07-22 12:01:45.660 ,1,0,64.,1.2,3.,1.2,2.,1.2,1.,1.2
1979-07-22 12:01:46.860 ,1,0,70.,1.2,10.,1.2,1.,1.2,0.,1.2
1979-07-22 12:01:48.060 ,1,0,64.,1.2,11.,1.2,1.,1.2,0.,1.2
1979-07-22 12:01:49.260 ,1,0,70.,1.2,12.,1.2,1.,1.2,0.,1.2
1979-07-22 12:01:50.460 ,1,0,64.,1.2,3.,1.2,3.,1.2,0.,1.2
1979-07-22 12:01:51.660 ,1,0,52.,1.2,9.,1.2,3.,1.2,0.,1.2
1979-07-22 12:01:52.860 ,1,0,49.,1.2,3.,1.2,2.,1.2,0.,1.2
1979-07-22 12:01:54.060 ,1,0,48.,1.2,13.,1.2,2.,1.2,0.,1.2
1979-07-22 12:01:55.260 ,1,0,52.,1.2,9.,1.2,0.,1.2,0.,1.2
1979-07-22 12:01:56.460 ,1,0,39.,1.2,6.,1.2,1.,1.2,0.,1.2
1979-07-22 12:01:57.660 ,1,0,53.,1.2,6.,1.2,2.,1.2,0.,1.2
1979-07-22 12:01:58.860 ,1,0,49.,1.2,6.,1.2,1.,1.2,0.,1.2
1979-07-22 12:02:00.060 ,1,0,50.,1.2,8.,1.2,0.,1.2,0.,1.2
1979-07-22 12:02:01.260 ,1,0,42.,1.2,7.,1.2,1.,1.2,0.,1.2
1979-07-22 12:02:02.460 ,1,0,63.,1.2,7.,1.2,0.,1.2,0.,1.2
1979-07-22 12:02:03.660 ,1,0,43.,1.2,6.,1.2,1.,1.2,0.,1.2
1979-07-22 12:02:04.860 ,1,0,33.,1.2,8.,1.2,0.,1.2,0.,1.2
1979-07-22 12:02:06.060 ,1,0,35.,1.2,6.,1.2,0.,1.2,0.,1.2
1979-07-22 12:02:07.260 ,1,0,46.,1.2,3.,1.2,2.,1.2,0.,1.2
1979-07-22 12:02:08.460 ,1,0,42.,1.2,6.,1.2,1.,1.2,0.,1.2
1979-07-22 12:02:09.660 ,1,0,36.,1.2,8.,1.2,2.,1.2,0.,1.2
1979-07-22 12:02:10.860 ,1,0,21.,1.2,7.,1.2,3.,1.2,0.,1.2
1979-07-22 12:02:12.060 ,1,0,26.,1.2,10.,1.2,0.,1.2,0.,1.2
1979-07-22 12:02:13.260 ,1,0,36.,1.2,4.,1.2,0.,1.2,0.,1.2
1979-07-22 12:02:14.460 ,1,0,22.,1.2,12.,1.2,0.,1.2,0.,1.2
1979-07-22 12:02:15.660 ,1,0,20.,1.2,3.,1.2,1.,1.2,0.,1.2
1979-07-22 12:02:16.860 ,1,0,20.,1.2,11.,1.2,1.,1.2,0.,1.2
1979-07-22 12:02:18.060 ,1,0,21.,1.2,6.,1.2,0.,1.2,0.,1.2
1979-07-22 12:02:19.260 ,1,0,22.,1.2,8.,1.2,0.,1.2,0.,1.2
1979-07-22 12:02:20.460 ,1,0,27.,1.2,6.,1.2,0.,1.2,0.,1.2
1979-07-22 12:02:21.660 ,1,0,29.,1.2,11.,1.2,1.,1.2,0.,1.2
1979-07-22 12:02:22.860 ,0,0,29.,1.2,8.,1.2,1.,1.2,0.,1.2
1979-07-22 12:02:24.060 ,0,0,37.,1.2,11.,1.2,2.,1.2,0.,1.2
1979-07-22 12:02:25.260 ,0,0,25.,1.2,5.,1.2,2.,1.2,0.,1.2
1979-07-22 12:02:26.460 ,0,0,29.,1.2,6.,1.2,2.,1.2,0.,1.2
1979-07-22 12:02:27.660 ,0,0,25.,1.2,7.,1.2,1.,1.2,0.,1.2
1979-07-22 12:02:28.860 ,0,0,296.,1.2,252.,1.2,1.,1.2,0.,1.2
1979-07-22 12:02:30.060 ,0,0,704.,1.2,9.,1.2,5.,1.2,0.,1.2
1979-07-22 12:02:31.260 ,0,0,752.,1.2,6.,1.2,4.,1.2,0.,1.2
1979-07-22 12:02:32.460 ,0,0,720.,1.2,12.,1.2,3.,1.2,0.,1.2
1979-07-22 12:02:33.660 ,0,0,672.,1.2,3.,1.2,2.,1.2,0.,1.2
1979-07-22 12:02:34.860 ,0,0,672.,1.2,3.,1.2,3.,1.2,0.,1.2
1979-07-22 12:02:36.060 ,0,0,576.,1.2,11.,1.2,4.,1.2,0.,1.2
1979-07-22 12:02:37.260 ,0,0,624.,1.2,8.,1.2,5.,1.2,0.,1.2
1979-07-22 12:02:38.460 ,0,0,576.,1.2,6.,1.2,8.,1.2,0.,1.2
1979-07-22 12:02:39.660 ,0,0,640.,1.2,3.,1.2,8.,1.2,0.,1.2
1979-07-22 12:02:40.860 ,0,0,624.,1.2,7.,1.2,4.,1.2,0.,1.2
1979-07-22 12:02:42.060 ,0,0,608.,1.2,6.,1.2,1.,1.2,0.,1.2
1979-07-22 12:02:43.260 ,0,0,544.,1.2,12.,1.2,1.,1.2,0.,1.2
1979-07-22 12:02:44.460 ,0,0,560.,1.2,5.,1.2,3.,1.2,0.,1.2
1979-07-22 12:02:45.660 ,0,0,488.,1.2,12.,1.2,4.,1.2,0.,1.2
1979-07-22 12:02:46.860 ,0,0,512.,1.2,7.,1.2,2.,1.2,1.,1.2
1979-07-22 12:02:48.060 ,0,0,504.,1.2,9.,1.2,1.,1.2,0.,1.2
1979-07-22 12:02:49.260 ,0,0,472.,1.2,3.,1.2,5.,1.2,0.,1.2
1979-07-22 12:02:50.460 ,0,0,456.,1.2,9.,1.2,2.,1.2,0.,1.2
1979-07-22 12:02:51.660 ,0,0,456.,1.2,5.,1.2,4.,1.2,0.,1.2
1979-07-22 12:02:52.860 ,0,0,416.,1.2,7.,1.2,4.,1.2,0.,1.2
1979-07-22 12:02:54.060 ,0,0,448.,1.2,10.,1.2,3.,1.2,0.,1.2
1979-07-22 12:02:55.260 ,0,0,496.,1.2,13.,1.2,6.,1.2,0.,1.2
1979-07-22 12:02:56.460 ,0,0,472.,1.2,11.,1.2,2.,1.2,0.,1.2
1979-07-22 12:02:57.660 ,0,0,480.,1.2,8.,1.2,1.,1.2,0.,1.2
1979-07-22 12:02:58.860 ,0,0,464.,1.2,6.,1.2,4.,1.2,0.,1.2
1979-07-22 12:03:00.060 ,0,0,472.,1.2,5.,1.2,6.,1.2,0.,1.2
1979-07-22 12:03:01.260 ,0,0,480.,1.2,4.,1.2,4.,1.2,0.,1.2
1979-07-22 12:03:02.460 ,0,0,480.,1.2,7.,1.2,5.,1.2,0.,1.2
1979-07-22 12:03:03.660 ,0,0,472.,1.2,12.,1.2,4.,1.2,0.,1.2
1979-07-22 12:03:04.860 ,0,0,472.,1.2,10.,1.2,3.,1.2,1.,1.2
1979-07-22 12:03:06.060 ,0,0,512.,1.2,8.,1.2,3.,1.2,0.,1.2
1979-07-22 12:03:07.260 ,0,0,504.,1.2,9.,1.2,4.,1.2,0.,1.2
1979-07-22 12:03:08.460 ,0,0,528.,1.2,7.,1.2,1.,1.2,0.,1.2
1979-07-22 12:03:09.660 ,0,0,512.,1.2,7.,1.2,0.,1.2,0.,1.2
1979-07-22 12:03:10.860 ,0,0,496.,1.2,6.,1.2,3.,1.2,1.,1.2
1979-07-22 12:03:12.060 ,0,0,544.,1.2,5.,1.2,4.,1.2,0.,1.2
1979-07-22 12:03:13.260 ,0,0,592.,1.2,8.,1.2,1.,1.2,0.,1.2
1979-07-22 12:03:14.460 ,0,0,576.,1.2,5.,1.2,2.,1.2,0.,1.2
1979-07-22 12:03:15.660 ,0,0,592.,1.2,5.,1.2,4.,1.2,0.,1.2
1979-07-22 12:03:16.860 ,0,0,640.,1.2,10.,1.2,3.,1.2,0.,1.2
1979-07-22 12:03:18.060 ,0,0,608.,1.2,5.,1.2,2.,1.2,0.,1.2
1979-07-22 12:03:19.260 ,0,0,672.,1.2,8.,1.2,1.,1.2,0.,1.2
1979-07-22 12:03:20.460 ,0,0,624.,1.2,6.,1.2,2.,1.2,0.,1.2
1979-07-22 12:03:21.660 ,0,0,704.,1.2,7.,1.2,0.,1.2,0.,1.2
1979-07-22 12:03:22.860 ,0,0,736.,1.2,7.,1.2,2.,1.2,0.,1.2
1979-07-22 12:03:24.060 ,0,0,720.,1.2,5.,1.2,2.,1.2,0.,1.2
1979-07-22 12:03:25.260 ,0,0,752.,1.2,4.,1.2,1.,1.2,0.,1.2
1979-07-22 12:03:26.460 ,0,0,752.,1.2,12.,1.2,2.,1.2,0.,1.2
1979-07-22 12:03:27.660 ,0,0,720.,1.2,7.,1.2,2.,1.2,0.,1.2
1979-07-22 12:03:28.860 ,0,0,736.,1.2,8.,1.2,3.,1.2,0.,1.2
1979-07-22 12:03:30.060 ,0,0,768.,1.2,12.,1.2,8.,1.2,0.,1.2
1979-07-22 12:03:31.260 ,0,0,816.,1.2,15.,1.2,4.,1.2,0.,1.2
1979-07-22 12:03:32.460 ,0,0,816.,1.2,9.,1.2,3.,1.2,0.,1.2
1979-07-22 12:03:33.660 ,0,0,912.,1.2,5.,1.2,0.,1.2,0.,1.2
1979-07-22 12:03:34.860 ,0,0,992.,1.2,13.,1.2,6.,1.2,0.,1.2
1979-07-22 12:03:36.060 ,0,0,928.,1.2,8.,1.2,1.,1.2,0.,1.2
1979-07-22 12:03:37.260 ,0,0,960.,1.2,9.,1.2,3.,1.2,0.,1.2
1979-07-22 12:03:38.460 ,0,0,880.,1.2,9.,1.2,1.,1.2,0.,1.2
1979-07-22 12:03:39.660 ,0,0,928.,1.2,7.,1.2,3.,1.2,0.,1.2
1979-07-22 12:03:40.860 ,0,0,944.,1.2,5.,1.2,2.,1.2,1.,1.2
1979-07-22 12:03:42.060 ,0,0,928.,1.2,6.,1.2,2.,1.2,0.,1.2
1979-07-22 12:03:43.260 ,0,0,944.,1.2,9.,1.2,3.,1.2,0.,1.2
1979-07-22 12:03:44.460 ,0,0,944.,1.2,7.,1.2,3.,1.2,0.,1.2
1979-07-22 12:03:45.660 ,0,0,896.,1.2,3.,1.2,1.,1.2,0.,1.2
1979-07-22 12:03:46.860 ,0,0,816.,1.2,9.,1.2,3.,1.2,0.,1.2
1979-07-22 12:03:48.060 ,0,0,864.,1.2,12.,1.2,2.,1.2,1.,1.2
1979-07-22 12:03:49.260 ,0,0,864.,1.2,8.,1.2,1.,1.2,0.,1.2
1979-07-22 12:03:50.460 ,0,0,896.,1.2,6.,1.2,2.,1.2,0.,1.2
1979-07-22 12:03:51.660 ,0,0,928.,1.2,8.,1.2,2.,1.2,0.,1.2
1979-07-22 12:03:52.860 ,0,0,912.,1.2,9.,1.2,4.,1.2,0.,1.2
1979-07-22 12:03:54.060 ,0,0,928.,1.2,8.,1.2,3.,1.2,0.,1.2
1979-07-22 12:03:55.260 ,0,0,960.,1.2,5.,1.2,3.,1.2,0.,1.2
1979-07-22 12:03:56.460 ,0,0,848.,1.2,9.,1.2,4.,1.2,0.,1.2
1979-07-22 12:03:57.660 ,0,0,912.,1.2,8.,1.2,7.,1.2,0.,1.2
1979-07-22 12:03:58.860 ,1,0,912.,1.2,8.,1.2,3.,1.2,0.,1.2
1979-07-22 12:04:00.060 ,1,0,816.,1.2,12.,1.2,6.,1.2,0.,1.2
1979-07-22 12:04:01.260 ,1,0,848.,1.2,10.,1.2,1.,1.2,0.,1.2
1979-07-22 12:04:02.460 ,1,0,864.,1.2,6.,1.2,3.,1.2,0.,1.2
1979-07-22 12:04:03.660 ,1,0,816.,1.2,9.,1.2,3.,1.2,0.,1.2
1979-07-22 12:04:04.860 ,1,0,480.,1.2,236.,1.2,2.,1.2,0.,1.2
1979-07-22 12:04:06.060 ,1,0,31.,1.2,6.,1.2,0.,1.2,0.,1.2
1979-07-22 12:04:07.260 ,1,0,24.,1.2,8.,1.2,0.,1.2,0.,1.2
1979-07-22 12:04:08.460 ,1,0,21.,1.2,9.,1.2,0.,1.2,0.,1.2
1979-07-22 12:04:09.660 ,1,0,43.,1.2,11.,1.2,0.,1.2,0.,1.2
1979-07-22 12:04:10.860 ,1,0,19.,1.2,6.,1.2,1.,1.2,0.,1.2
1979-07-22 12:04:12.060 ,1,0,24.,1.2,7.,1.2,1.,1.2,0.,1.2
1979-07-22 12:04:13.260 ,1,0,28.,1.2,13.,1.2,0.,1.2,0.,1.2
1979-07-22 12:04:14.460 ,1,0,26.,1.2,5.,1.2,1.,1.2,0.,1.2
1979-07-22 12:04:15.660 ,1,0,22.,1.2,5.,1.2,0.,1.2,0.,1.2
1979-07-22 12:04:16.860 ,1,0,28.,1.2,12.,1.2,0.,1.2,0.,1.2
1979-07-22 12:04:18.060 ,1,0,27.,1.2,7.,1.2,0.,1.2,0.,1.2
1979-07-22 12:04:19.260 ,1,0,20.,1.2,7.,1.2,1.,1.2,0.,1.2
1979-07-22 12:04:20.460 ,1,0,23.,1.2,8.,1.2,1.,1.2,0.,1.2
1979-07-22 12:04:21.660 ,1,0,27.,1.2,7.,1.2,1.,1.2,0.,1.2
1979-07-22 12:04:22.860 ,1,0,26.,1.2,10.,1.2,0.,1.2,0.,1.2
1979-07-22 12:04:24.060 ,1,0,19.,1.2,8.,1.2,0.,1.2,0.,1.2
1979-07-22 12:04:25.260 ,1,0,24.,1.2,10.,1.2,1.,1.2,0.,1.2
1979-07-22 12:04:26.460 ,1,0,27.,1.2,13.,1.2,0.,1.2,0.,1.2
1979-07-22 12:04:27.660 ,1,0,32.,1.2,13.,1.2,0.,1.2,0.,1.2
1979-07-22 12:04:28.860 ,1,0,24.,1.2,11.,1.2,0.,1.2,0.,1.2
1979-07-22 12:04:30.060 ,1,0,19.,1.2,8.,1.2,0.,1.2,0.,1.2
1979-07-22 12:04:31.260 ,1,0,31.,1.2,13.,1.2,1.,1.2,0.,1.2
1979-07-22 12:04:32.460 ,1,0,20.,1.2,11.,1.2,2.,1.2,0.,1.2
1979-07-22 12:04:33.660 ,1,0,27.,1.2,10.,1.2,0.,1.2,0.,1.2
1979-07-22 12:04:34.860 ,1,0,28.,1.2,5.,1.2,0.,1.2,0.,1.2
1979-07-22 12:04:36.060 ,1,0,38.,1.2,10.,1.2,0.,1.2,0.,1.2
1979-07-22 12:04:37.260 ,1,0,34.,1.2,6.,1.2,1.,1.2,0.,1.2
1979-07-22 12:04:38.460 ,1,0,23.,1.2,9.,1.2,1.,1.2,0.,1.2
1979-07-22 12:04:39.660 ,1,0,32.,1.2,7.,1.2,0.,1.2,0.,1.2
1979-07-22 12:04:40.860 ,1,0,22.,1.2,3.,1.2,0.,1.2,0.,1.2
1979-07-22 12:04:42.060 ,1,0,26.,1.2,6.,1.2,2.,1.2,0.,1.2
1979-07-22 12:04:43.260 ,1,0,29.,1.2,9.,1.2,0.,1.2,0.,1.2
1979-07-22 12:04:44.460 ,1,0,25.,1.2,7.,1.2,1.,1.2,0.,1.2
1979-07-22 12:04:45.660 ,1,0,13.,1.2,6.,1.2,0.,1.2,0.,1.2
1979-07-22 12:04:46.860 ,2,0,24.,1.2,6.,1.2,1.,1.2,1.,1.2
1979-07-22 12:04:48.060 ,2,0,14.,1.2,8.,1.2,1.,1.2,0.,1.2
1979-07-22 12:04:49.260 ,2,0,20.,1.2,7.,1.2,0.,1.2,0.,1.2
1979-07-22 12:04:50.460 ,2,0,13.,1.2,7.,1.2,0.,1.2,0.,1.2
1979-07-22 12:04:51.660 ,2,0,13.,1.2,3.,1.2,1.,1.2,0.,1.2
1979-07-22 12:04:52.860 ,2,0,12.,1.2,188.,1.2,0.,1.2,0.,1.2
1979-07-22 12:04:54.060 ,2,0,3.,1.2,7.,1.2,0.,1.2,0.,1.2
1979-07-22 12:04:55.260 ,2,0,1.,1.2,10.,1.2,1.,1.2,0.,1.2
1979-07-22 12:04:56.460 ,2,0,3.,1.2,7.,1.2,0.,1.2,0.,1.2
1979-07-22 12:04:57.660 ,2,0,3.,1.2,7.,1.2,0.,1.2,0.,1.2
1979-07-22 12:04:58.860 ,2,0,3.,1.2,3.,1.2,0.,1.2,1.,1.2
1979-07-22 12:05:00.060 ,2,0,1.,1.2,7.,1.2,1.,1.2,0.,1.2
1979-07-22 12:05:01.260 ,2,0,2.,1.2,10.,1.2,0.,1.2,0.,1.2
1979-07-22 12:05:02.460 ,2,0,3.,1.2,7.,1.2,0.,1.2,0.,1.2
1979-07-22 12:05:03.660 ,2,0,4.,1.2,9.,1.2,0.,1.2,0.,1.2
1979-07-22 12:05:04.860 ,2,0,2.,1.2,10.,1.2,1.,1.2,0.,1.2
1979-07-22 12:05:06.060 ,2,0,3.,1.2,5.,1.2,0.,1.2,0.,1.2
1979-07-22 12:05:07.260 ,2,0,3.,1.2,5.,1.2,0.,1.2,0.,1.2
1979-07-22 12:05:08.460 ,2,0,4.,1.2,3.,1.2,0.,1.2,0.,1.2
1979-07-22 12:05:09.660 ,2,0,4.,1.2,4.,1.2,0.,1.2,0.,1.2
1979-07-22 12:05:10.860 ,2,0,5.,1.2,6.,1.2,0.,1.2,0.,1.2
1979-07-22 12:05:12.060 ,2,0,2.,1.2,7.,1.2,0.,1.2,0.,1.2
1979-07-22 12:05:13.260 ,2,0,2.,1.2,13.,1.2,0.,1.2,0.,1.2
1979-07-22 12:05:14.460 ,2,0,1.,1.2,7.,1.2,0.,1.2,1.,1.2
1979-07-22 12:05:15.660 ,2,0,4.,1.2,6.,1.2,0.,1.2,0.,1.2
1979-07-22 12:05:16.860 ,2,0,1.,1.2,6.,1.2,0.,1.2,0.,1.2
1979-07-22 12:05:18.060 ,2,0,6.,1.2,8.,1.2,0.,1.2,0.,1.2
1979-07-22 12:05:19.260 ,2,0,2.,1.2,7.,1.2,0.,1.2,0.,1.2
1979-07-22 12:05:20.460 ,2,0,0.,1.2,10.,1.2,0.,1.2,0.,1.2
1979-07-22 12:05:21.660 ,2,0,6.,1.2,6.,1.2,0.,1.2,0.,1.2
1979-07-22 12:05:22.860 ,2,0,5.,1.2,9.,1.2,0.,1.2,0.,1.2
1979-07-22 12:05:24.060 ,2,0,5.,1.2,12.,1.2,0.,1.2,0.,1.2
1979-07-22 12:05:25.260 ,2,0,4.,1.2,9.,1.2,0.,1.2,0.,1.2
1979-07-22 12:05:26.460 ,2,0,3.,1.2,8.,1.2,0.,1.2,0.,1.2
1979-07-22 12:05:27.660 ,2,0,5.,1.2,7.,1.2,0.,1.2,0.,1.2
1979-07-22 12:05:28.860 ,2,0,0.,1.2,5.,1.2,0.,1.2,0.,1.2
1979-07-22 12:05:30.060 ,2,0,2.,1.2,7.,1.2,0.,1.2,0.,1.2
1979-07-22 12:05:31.260 ,2,0,1.,1.2,18.,1.2,0.,1.2,0.,1.2
1979-07-22 12:05:32.460 ,2,0,5.,1.2,23.,1.2,0.,1.2,0.,1.2
1979-07-22 12:05:33.660 ,2,0,7.,1.2,39.,1.2,0.,1.2,0.,1.2
1979-07-22 12:05:34.860 ,3,0,3.,1.2,29.,1.2,0.,1.2,0.,1.2
1979-07-22 12:05:36.060 ,3,0,3.,1.2,17.,1.2,0.,1.2,0.,1.2
1979-07-22 12:05:37.260 ,3,0,6.,1.2,6.,1.2,0.,1.2,0.,1.2
1979-07-22 12:05:38.460 ,3,0,2.,1.2,9.,1.2,0.,1.2,0.,1.2
1979-07-22 12:05:39.660 ,3,0,4.,1.2,8.,1.2,0.,1.2,0.,1.2
1979-07-22 12:05:40.860 ,3,0,1.,1.2,184.,1.2,0.,1.2,0.,1.2
1979-07-22 12:05:42.060 ,3,0,2.,1.2,8.,1.2,0.,1.2,0.,1.2
1979-07-22 12:05:43.260 ,3,0,3.,1.2,9.,1.2,0.,1.2,0.,1.2
1979-07-22 12:05:44.460 ,3,0,5.,1.2,6.,1.2,0.,1.2,0.,1.2
1979-07-22 12:05:45.660 ,3,0,0.,1.2,13.,1.2,0.,1.2,0.,1.2
1979-07-22 12:05:46.860 ,3,0,3.,1.2,11.,1.2,1.,1.2,0.,1.2
1979-07-22 12:05:48.060 ,3,0,0.,1.2,14.,1.2,0.,1.2,0.,1.2
1979-07-22 12:05:49.260 ,3,0,0.,1.2,8.,1.2,0.,1.2,0.,1.2
1979-07-22 12:05:50.460 ,3,0,5.,1.2,4.,1.2,0.,1.2,0.,1.2
1979-07-22 12:05:51.660 ,3,0,3.,1.2,14.,1.2,0.,1.2,0.,1.2
1979-07-22 12:05:52.860 ,3,0,3.,1.2,16.,1.2,0.,1.2,0.,1.2
1979-07-22 12:05:54.060 ,3,0,2.,1.2,12.,1.2,0.,1.2,0.,1.2
1979-07-22 12:05:55.260 ,3,0,4.,1.2,19.,1.2,0.,1.2,0.,1.2
1979-07-22 12:05:56.460 ,3,0,2.,1.2,10.,1.2,0.,1.2,0.,1.2
1979-07-22 12:05:57.660 ,3,0,1.,1.2,17.,1.2,0.,1.2,1.,1.2
1979-07-22 12:05:58.860 ,3,0,3.,1.2,18.,1.2,0.,1.2,0.,1.2
1979-07-22 12:06:00.060 ,3,0,0.,1.2,18.,1.2,0.,1.2,0.,1.2
1979-07-22 12:06:01.260 ,3,0,0.,1.2,13.,1.2,0.,1.2,0.,1.2
1979-07-22 12:06:02.460 ,3,0,4.,1.2,12.,1.2,0.,1.2,0.,1.2
1979-07-22 12:06:03.660 ,3,0,3.,1.2,19.,1.2,0.,1.2,0.,1.2
1979-07-22 12:06:04.860 ,3,0,5.,1.2,19.,1.2,0.,1.2,0.,1.2
1979-07-22 12:06:06.060 ,3,0,1.,1.2,24.,1.2,1.,1.2,0.,1.2
1979-07-22 12:06:07.260 ,3,0,2.,1.2,18.,1.2,0.,1.2,0.,1.2
1979-07-22 12:06:08.460 ,3,0,5.,1.2,16.,1.2,0.,1.2,0.,1.2
1979-07-22 12:06:09.660 ,3,0,2.,1.2,29.,1.2,0.,1.2,0.,1.2
1979-07-22 12:06:10.860 ,3,0,2.,1.2,23.,1.2,1.,1.2,0.,1.2
1979-07-22 12:06:12.060 ,3,0,3.,1.2,18.,1.2,0.,1.2,0.,1.2
1979-07-22 12:06:13.260 ,3,0,2.,1.2,16.,1.2,0.,1.2,0.,1.2
1979-07-22 12:06:14.460 ,3,0,0.,1.2,14.,1.2,0.,1.2,0.,1.2
1979-07-22 12:06:15.660 ,3,0,2.,1.2,15.,1.2,0.,1.2,1.,1.2
1979-07-22 12:06:16.860 ,3,0,2.,1.2,14.,1.2,0.,1.2,0.,1.2
1979-07-22 12:06:18.060 ,3,0,3.,1.2,12.,1.2,0.,1.2,0.,1.2
1979-07-22 12:06:19.260 ,3,0,4.,1.2,7.,1.2,0.,1.2,1.,1.2
1979-07-22 12:06:20.460 ,3,0,1.,1.2,6.,1.2,0.,1.2,0.,1.2
1979-07-22 12:06:21.660 ,3,0,2.,1.2,15.,1.2,0.,1.2,0.,1.2
1979-07-22 12:06:22.860 ,4,0,2.,1.2,10.,1.2,0.,1.2,0.,1.2
1979-07-22 12:06:24.060 ,4,0,2.,1.2,11.,1.2,0.,1.2,0.,1.2
1979-07-22 12:06:25.260 ,4,0,2.,1.2,13.,1.2,0.,1.2,0.,1.2
1979-07-22 12:06:26.460 ,4,0,1.,1.2,11.,1.2,1.,1.2,0.,1.2
1979-07-22 12:06:27.660 ,4,0,2.,1.2,16.,1.2,0.,1.2,0.,1.2
1979-07-22 12:06:28.860 ,4,0,5.,1.2,504.,1.2,0.,1.2,1.,1.2
1979-07-22 12:06:30.060 ,4,0,1.,1.2,800.,1.2,0.,1.2,0.,1.2
1979-07-22 12:06:31.260 ,4,0,1.,1.2,1152.,1.2,0.,1.2,0.,1.2
1979-07-22 12:06:32.460 ,4,0,3.,1.2,1088.,1.2,0.,1.2,0.,1.2
1979-07-22 12:06:33.660 ,4,0,3.,1.2,720.,1.2,0.,1.2,0.,1.2
1979-07-22 12:06:34.860 ,4,0,1.,1.2,328.,1.2,0.,1.2,0.,1.2
1979-07-22 12:06:36.060 ,4,0,2.,1.2,912.,1.2,0.,1.2,0.,1.2
1979-07-22 12:06:37.260 ,4,0,3.,1.2,1088.,1.2,0.,1.2,0.,1.2
1979-07-22 12:06:38.460 ,4,0,3.,1.2,1184.,1.2,1.,1.2,0.,1.2
1979-07-22 12:06:39.660 ,4,0,2.,1.2,1312.,1.2,0.,1.2,0.,1.2
1979-07-22 12:06:40.860 ,4,0,3.,1.2,1216.,1.2,0.,1.2,0.,1.2
1979-07-22 12:06:42.060 ,4,0,3.,1.2,560.,1.2,0.,1.2,0.,1.2
1979-07-22 12:06:43.260 ,4,0,1.,1.2,212.,1.2,0.,1.2,0.,1.2
1979-07-22 12:06:44.460 ,4,0,1.,1.2,164.,1.2,0.,1.2,0.,1.2
1979-07-22 12:06:45.660 ,4,0,3.,1.2,608.,1.2,0.,1.2,0.,1.2
1979-07-22 12:06:46.860 ,4,0,3.,1.2,992.,1.2,0.,1.2,0.,1.2
1979-07-22 12:06:48.060 ,4,0,0.,1.2,992.,1.2,0.,1.2,0.,1.2
1979-07-22 12:06:49.260 ,4,0,4.,1.2,768.,1.2,0.,1.2,0.,1.2
1979-07-22 12:06:50.460 ,4,0,0.,1.2,752.,1.2,0.,1.2,0.,1.2
1979-07-22 12:06:51.660 ,4,0,4.,1.2,800.,1.2,0.,1.2,0.,1.2
1979-07-22 12:06:52.860 ,4,0,2.,1.2,880.,1.2,0.,1.2,0.,1.2
1979-07-22 12:06:54.060 ,4,0,0.,1.2,720.,1.2,0.,1.2,0.,1.2
1979-07-22 12:06:55.260 ,4,0,3.,1.2,656.,1.2,0.,1.2,0.,1.2
1979-07-22 12:06:56.460 ,4,0,4.,1.2,640.,1.2,0.,1.2,0.,1.2
1979-07-22 12:06:57.660 ,4,0,2.,1.2,688.,1.2,0.,1.2,0.,1.2
1979-07-22 12:06:58.860 ,4,0,1.,1.2,960.,1.2,0.,1.2,0.,1.2
1979-07-22 12:07:00.060 ,4,0,2.,1.2,1120.,1.2,0.,1.2,0.,1.2
1979-07-22 12:07:01.260 ,4,0,0.,1.2,976.,1.2,0.,1.2,0.,1.2
1979-07-22 12:07:02.460 ,4,0,0.,1.2,880.,1.2,0.,1.2,0.,1.2
1979-07-22 12:07:03.660 ,4,0,1.,1.2,736.,1.2,0.,1.2,0.,1.2
1979-07-22 12:07:04.860 ,4,0,2.,1.2,528.,1.2,1.,1.2,0.,1.2
1979-07-22 12:07:06.060 ,4,0,3.,1.2,512.,1.2,0.,1.2,0.,1.2
1979-07-22 12:07:07.260 ,4,0,1.,1.2,704.,1.2,0.,1.2,0.,1.2
1979-07-22 12:07:08.460 ,4,0,0.,1.2,864.,1.2,1.,1.2,0.,1.2
1979-07-22 12:07:09.660 ,4,0,3.,1.2,1024.,1.2,0.,1.2,0.,1.2
1979-07-22 12:06:46.860 ,4,0,3.,1.2,992.,1.2,0.,1.2,0.,1.2
1979-07-22 12:06:48.060 ,4,0,0.,1.2,992.,1.2,0.,1.2,0.,1.2
1979-07-22 12:06:49.260 ,4,0,4.,1.2,768.,1.2,0.,1.2,0.,1.2
1979-07-22 12:06:50.460 ,4,0,0.,1.2,752.,1.2,0.,1.2,0.,1.2
1979-07-22 12:06:51.660 ,4,0,4.,1.2,800.,1.2,0.,1.2,0.,1.2
1979-07-22 12:06:52.860 ,4,0,2.,1.2,880.,1.2,0.,1.2,0.,1.2
1979-07-22 12:06:54.060 ,4,0,0.,1.2,720.,1.2,0.,1.2,0.,1.2
1979-07-22 12:06:55.260 ,4,0,3.,1.2,656.,1.2,0.,1.2,0.,1.2
1979-07-22 12:06:56.460 ,4,0,4.,1.2,640.,1.2,0.,1.2,0.,1.2
1979-07-22 12:06:57.660 ,4,0,2.,1.2,688.,1.2,0.,1.2,0.,1.2
1979-07-22 12:06:58.860 ,4,0,1.,1.2,960.,1.2,0.,1.2,0.,1.2
1979-07-22 12:07:00.060 ,4,0,2.,1.2,1120.,1.2,0.,1.2,0.,1.2
1979-07-22 12:07:01.260 ,4,0,0.,1.2,976.,1.2,0.,1.2,0.,1.2
1979-07-22 12:07:02.460 ,4,0,0.,1.2,880.,1.2,0.,1.2,0.,1.2
1979-07-22 12:07:03.660 ,4,0,1.,1.2,736.,1.2,0.,1.2,0.,1.2
1979-07-22 12:07:04.860 ,4,0,2.,1.2,528.,1.2,1.,1.2,0.,1.2
1979-07-22 12:07:06.060 ,4,0,3.,1.2,512.,1.2,0.,1.2,0.,1.2
1979-07-22 12:07:07.260 ,4,0,1.,1.2,704.,1.2,0.,1.2,0.,1.2
1979-07-22 12:07:08.460 ,4,0,0.,1.2,864.,1.2,1.,1.2,0.,1.2
1979-07-22 12:07:09.660 ,4,0,3.,1.2,1024.,1.2,0.,1.2,0.,1.2
1979-07-22 12:07:10.860 ,5,0,1.,1.2,992.,1.2,0.,1.2,0.,1.2
1979-07-22 12:07:12.060 ,5,0,2.,1.2,1024.,1.2,0.,1.2,0.,1.2
1979-07-22 12:07:13.260 ,5,0,4.,1.2,1024.,1.2,0.,1.2,1.,1.2
1979-07-22 12:07:14.460 ,5,0,2.,1.2,976.,1.2,0.,1.2,0.,1.2
1979-07-22 12:07:15.660 ,5,0,0.,1.2,1056.,1.2,0.,1.2,0.,1.2
1979-07-22 12:07:16.860 ,5,0,3.,1.2,1088.,1.2,0.,1.2,0.,1.2
1979-07-22 12:07:18.060 ,5,0,0.,1.2,456.,1.2,0.,1.2,1.,1.2
1979-07-22 12:07:19.260 ,5,0,2.,1.2,360.,1.2,0.,1.2,0.,1.2
1979-07-22 12:07:20.460 ,5,0,2.,1.2,368.,1.2,0.,1.2,0.,1.2
1979-07-22 12:07:21.660 ,5,0,3.,1.2,400.,1.2,1.,1.2,0.,1.2
1979-07-22 12:07:22.860 ,5,0,2.,1.2,384.,1.2,0.,1.2,0.,1.2
1979-07-22 12:07:24.060 ,5,0,1.,1.2,248.,1.2,0.,1.2,0.,1.2
1979-07-22 12:07:25.260 ,5,0,1.,1.2,122.,1.2,0.,1.2,0.,1.2
1979-07-22 12:07:26.460 ,5,0,2.,1.2,120.,1.2,0.,1.2,0.,1.2
1979-07-22 12:07:27.660 ,5,0,0.,1.2,128.,1.2,0.,1.2,2.,1.2
1979-07-22 12:07:28.860 ,5,0,2.,1.2,152.,1.2,0.,1.2,0.,1.2
1979-07-22 12:07:30.060 ,5,0,0.,1.2,118.,1.2,0.,1.2,0.,1.2
1979-07-22 12:07:31.260 ,5,0,0.,1.2,106.,1.2,0.,1.2,0.,1.2
1979-07-22 12:07:32.460 ,5,0,1.,1.2,104.,1.2,0.,1.2,0.,1.2
1979-07-22 12:07:33.660 ,5,0,2.,1.2,140.,1.2,0.,1.2,0.,1.2
1979-07-22 12:07:34.860 ,5,0,2.,1.2,148.,1.2,0.,1.2,0.,1.2
1979-07-22 12:07:36.060 ,5,0,3.,1.2,140.,1.2,0.,1.2,0.,1.2
1979-07-22 12:07:37.260 ,5,0,3.,1.2,196.,1.2,0.,1.2,0.,1.2
1979-07-22 12:07:38.460 ,5,0,3.,1.2,86.,1.2,0.,1.2,0.,1.2
1979-07-22 12:07:39.660 ,5,0,0.,1.2,13.,1.2,0.,1.2,0.,1.2
1979-07-22 12:07:40.860 ,5,0,3.,1.2,7.,1.2,0.,1.2,0.,1.2
1979-07-22 12:07:42.060 ,5,0,0.,1.2,8.,1.2,0.,1.2,0.,1.2
1979-07-22 12:07:43.260 ,5,0,2.,1.2,23.,1.2,0.,1.2,0.,1.2
1979-07-22 12:07:44.460 ,5,0,2.,1.2,33.,1.2,0.,1.2,0.,1.2
1979-07-22 12:07:45.660 ,5,0,1.,1.2,112.,1.2,0.,1.2,0.,1.2
1979-07-22 12:07:46.860 ,5,0,2.,1.2,164.,1.2,0.,1.2,0.,1.2
1979-07-22 12:07:48.060 ,5,0,0.,1.2,168.,1.2,0.,1.2,0.,1.2
1979-07-22 12:07:49.260 ,5,0,1.,1.2,78.,1.2,0.,1.2,0.,1.2
1979-07-22 12:07:50.460 ,5,0,2.,1.2,104.,1.2,1.,1.2,0.,1.2
1979-07-22 12:07:51.660 ,5,0,1.,1.2,228.,1.2,0.,1.2,0.,1.2
1979-07-22 12:07:52.860 ,5,0,4.,1.2,304.,1.2,0.,1.2,0.,1.2
1979-07-22 12:07:54.060 ,5,0,4.,1.2,98.,1.2,0.,1.2,0.,1.2
1979-07-22 12:07:55.260 ,5,0,2.,1.2,17.,1.2,1.,1.2,0.,1.2
1979-07-22 12:07:56.460 ,5,0,4.,1.2,14.,1.2,0.,1.2,0.,1.2
1979-07-22 12:07:57.660 ,5,0,1.,1.2,13.,1.2,0.,1.2,0.,1.2
1979-07-22 12:07:58.860 ,6,0,1.,1.2,10.,1.2,0.,1.2,0.,1.2
1979-07-22 12:08:00.060 ,6,0,3.,1.2,14.,1.2,0.,1.2,0.,1.2
1979-07-22 12:08:01.260 ,6,0,2.,1.2,14.,1.2,0.,1.2,0.,1.2